Regional Weather Roundup
Issued by NWS

Home | Current Version | Previous Version | Graphics & Text | Print | Product List | Glossary On
Versions: 1 2 3 4 5 6 7 8 9 10 11 12 13 14 15 16 17 18 19 20 21 22 23 24 25 26 27 28 29 30 31 32 33 34 35 36 37 38 39 40 41 42 43 44 45 46 47 48 49 50
000
ASUS43 KIND 221959
RWRIN

WEATHER ROUNDUP FOR INDIANA
NATIONAL WEATHER SERVICE INDIANAPOLIS IN
400 PM EDT MON SEP 22 2014

NOTE: "FAIR" INDICATES FEW OR NO CLOUDS BELOW 12,000 FEET WITH NO
SIGNIFICANT WEATHER AND/OR OBSTRUCTIONS TO VISIBILITY.

* - STATION DOES NOT REPORT WEATHER SUCH AS PRECIPITATION OR FOG.

+ - STATION NOT QUALITY CONTROLLED BY THE NATIONAL WEATHER SERVICE.
    USE DATA WITH CAUTION...ESPECIALLY DEWPOINT AND RELATIVE
    HUMIDITY OBSERVATIONS.

INZ001>003-010>013-019-020-222100-
NORTHWEST INDIANA

CITY           SKY/WX    TMP DP  RH WIND       PRES   REMARKS
GARY /AIRPORT/ SUNNY     63  45  51 NE7       30.27F
VALPARAISO     SUNNY     63  44  50 VRB6      30.27F

$$

LMZ046-743>745-222100-
SOUTHERN LAKE MICHIGAN

STATION/POSITION TIME  TEMP WIND        PRES
                       AIR  DIR/SP/G
                 (UTC) (F)  (DEG/KT/KT) (MB)
MICHIGAN CITY    1900   58  330/  6/  8   N/A

$$

INZ004-005-014>016-021>024-222100-
NORTH CENTRAL INDIANA

CITY           SKY/WX    TMP DP  RH WIND       PRES   REMARKS
ELKHART        SUNNY     63  41  45 NW9       30.24F
GOSHEN         SUNNY    N/A N/A N/A N8        30.23F
SOUTH BEND     SUNNY     64  43  46 NW8       30.25F
WARSAW +       SUNNY     63  43  48 NW8       30.24S

$$

INZ006>009-017-018-025>027-222100-
NORTHEAST INDIANA

CITY           SKY/WX    TMP DP  RH WIND       PRES   REMARKS
ANGOLA *+      SUNNY     63  54  72 N6        30.22S
FORT WAYNE     MOSUNNY   63  43  48 W7        30.23F

$$

INZ028-029-035-036-043>045-051>053-222100-
WEST CENTRAL INDIANA

CITY           SKY/WX    TMP DP  RH WIND       PRES   REMARKS
GREENCASTLE +  SUNNY     64  45  48 N6        30.25F
LAFAYETTE      SUNNY     65  44  46 VRB3      30.24F
TERRE HAUTE    SUNNY     68  44  42 N9        30.25F

$$

INZ030>032-037>040-046>048-054>057-064-065-222100-
CENTRAL INDIANA

CITY           SKY/WX    TMP DP  RH WIND       PRES   REMARKS
ANDERSON       SUNNY     63  39  42 NW8       30.24F
INDIANAPOLIS   MOSUNNY   65  40  39 NW8       30.24F
-EAGLE CREEK   SUNNY     64  40  41 NW8       30.24F
KOKOMO *+      SUNNY     66  43  42 NW7       30.24F
MT COMFORT *+  SUNNY     63  30  29 CALM      30.24F
SHELBYVILLE    SUNNY     66  42  41 NW8       30.23F

$$

INZ033-034-041-042-049-050-058-059-222100-
EAST CENTRAL INDIANA

CITY           SKY/WX    TMP DP  RH WIND       PRES   REMARKS
MUNCIE         SUNNY     63  40  42 NW6       30.23F

$$

INZ060-061-067>069-081>083-085>088-222100-
SOUTHWEST INDIANA

CITY           SKY/WX    TMP DP  RH WIND       PRES   REMARKS
EVANSVILLE     SUNNY     71  45  39 N9        30.24S

$$

INZ062-063-066-070>080-084-089>092-222100-
SOUTH CENTRAL AND SOUTHEAST INDIANA

CITY           SKY/WX    TMP DP  RH WIND       PRES   REMARKS
BLOOMINGTON    SUNNY     66  41  40 N8        30.24F

$$



USA.gov is the U.S. government's official web portal to all federal, state and local government web resources and services.